Location: Summit Observatory
(39.5293°N, 75.7290°W)
Time: 17:15:46
(UTC-04:00)

Amateur Radio Satellites - All Passes

Search period start: 30 July 2014 16:45
Search period end: 31 July 2014 16:45
Location: Summit Observatory, 39.5293°N, 75.7290°W

Satellite Date Start Highest point End Downlink Frequencies (MHz)
Time Altitude Azimuth
Saudisat 1A 30 Jul 16:46:00 16:50:23 67° 241° (WSW) 16:54:44 436.775 MHz
RS-15 30 Jul 16:52:40 17:00:51 23° 336° (NNW) 17:09:04 29.354 - 29.394 USB, Beacon 29.352 USB
Hamsat 30 Jul 17:00:37 17:02:00 11° 64° (ENE) 17:03:23 145.90 MHz
Uosat F 30 Jul 17:17:10 17:21:39 32° 263° (W) 17:26:09 435.120 FM
KITSAT 1 30 Jul 17:28:12 17:33:34 20° 258° (WSW) 17:38:57 435.175 FM
JAS-2 30 Jul 18:00:27 18:08:00 57° 71° (ENE) 18:15:04 435.800 - 435.900 CW/SSB, 435.910 FM
OPAL 30 Jul 18:15:26 18:19:47 29° 295° (WNW) 18:24:10 ?
AO-7 30 Jul 18:32:37 18:37:22 16° 270° (W) 18:42:08 29.400 - 29.500 MHz
Hamsat 30 Jul 18:33:19 18:37:26 60° 260° (W) 18:41:36 145.90 MHz
STRAND 1 30 Jul 19:02:40 19:06:52 25° 95° (E) 19:11:02 ?
RS-15 30 Jul 19:11:46 19:18:57 19° 13° (NNE) 19:26:12 29.354 - 29.394 USB, Beacon 29.352 USB
HO-68 30 Jul 19:22:29 19:26:02 15° 53° (NE) 19:29:35 435.675 MHz FM
SO-67 30 Jul 19:23:19 19:26:46 74° 78° (ENE) 19:30:14 435.3500 MHz FM
JAS-2 30 Jul 19:46:39 19:53:11 29° 266° (W) 19:59:27 435.800 - 435.900 CW/SSB, 435.910 FM
SO-50 30 Jul 20:11:39 20:15:18 21° 46° (NE) 20:18:59 436.795 FM
MaSat-1 30 Jul 20:37:11 20:40:49 34° 106° (ESE) 20:45:00 437.345 MHz
STRAND 1 30 Jul 20:41:28 20:46:06 36° 291° (WNW) 20:50:43 ?
AO-40 30 Jul 20:51:13 03:46:34 39° 183° (S) 09:17:27 Beacon 2401.320
UKube-1 30 Jul 20:56:30 21:00:24 33° 70° (ENE) 21:04:20 145.840 MHz, 145.915 MHz
HO-68 30 Jul 21:05:25 21:12:34 76° 72° (ENE) 21:19:43 435.675 MHz FM
RS-15 30 Jul 21:24:55 21:35:19 44° 45° (NE) 21:46:00 29.354 - 29.394 USB, Beacon 29.352 USB
Oscar 11 30 Jul 21:39:22 21:43:29 47° 73° (ENE) 21:47:38 145.825 FM, Beacon 2401.500 USB
SO-50 30 Jul 21:51:31 21:56:09 52° 243° (WSW) 22:00:50 436.795 FM
UOSAT-12 30 Jul 22:02:21 22:05:52 20° 44° (NE) 22:09:21 437.025 FM, 437.400 FM
FUNcube-1 30 Jul 22:06:26 22:10:18 33° 71° (ENE) 22:14:07 145.950 - 145.970 MHz USB
MaSat-1 30 Jul 22:14:46 22:18:14 24° 308° (NW) 22:22:06 437.345 MHz
UKube-1 30 Jul 22:33:22 22:36:39 21° 265° (W) 22:39:58 145.840 MHz, 145.915 MHz
ISS 30 Jul 22:52:40 22:55:55 53° 138° (SE) 22:59:11 145.800 FM
HO-68 30 Jul 22:56:08 23:00:54 19° 268° (W) 23:05:40 435.675 MHz FM
Oscar 11 30 Jul 23:17:40 23:19:56 14° 268° (W) 23:22:12 145.825 FM, Beacon 2401.500 USB
RS-15 30 Jul 23:37:18 23:48:01 58° 247° (WSW) 23:59:09 29.354 - 29.394 USB, Beacon 29.352 USB
UOSAT-12 30 Jul 23:41:44 23:46:21 55° 243° (WSW) 23:50:54 437.025 FM, 437.400 FM
FUNcube-1 30 Jul 23:43:40 23:46:46 19° 266° (W) 23:49:51 145.950 - 145.970 MHz USB
Sapphire 30 Jul 23:44:30 23:48:49 25° 107° (ESE) 23:53:09 437.095 MHz 1200 baud AX-25 AFSK
PCSat 31 Jul 00:16:34 00:21:47 53° 113° (ESE) 00:27:03 145.825 MHz
ISS 31 Jul 00:30:07 00:32:49 22° 335° (NNW) 00:35:33 145.800 FM
Sapphire 31 Jul 01:26:49 01:31:57 44° 304° (NW) 01:37:08 437.095 MHz 1200 baud AX-25 AFSK
Oscar 19 31 Jul 01:48:11 01:52:20 24° 95° (E) 01:56:28 437.125 CW, 437.150 USB
AO-Echo 31 Jul 01:51:31 01:51:59 10° 88° (E) 01:52:26 ?
PCSat 31 Jul 02:01:13 02:05:31 24° 311° (NW) 02:09:50 145.825 MHz
ISS 31 Jul 02:09:37 02:10:31 11° 355° (N) 02:11:25 145.800 FM
JAS-1B 31 Jul 02:16:14 02:22:29 21° 85° (E) 02:28:06 435.800 - 435.900 CW/SSB
Oscar 16 31 Jul 02:16:20 02:21:19 47° 99° (E) 02:26:17 437.025 USB, Beacon 2401.1428
Oscar 10/S400 31 Jul 02:18:42 03:05:41 63° 197° (SSW) 11:53:49 145.825 - 145.975 CW/USB, Beacon 145.810 USB
ITAMSAT 1 31 Jul 02:41:49 02:46:32 35° 97° (E) 02:51:13 435.822 SSB
Uribyol 2 31 Jul 03:00:28 03:05:33 57° 101° (E) 03:10:36 436.500 FM
AO-27 31 Jul 03:01:21 03:06:27 55° 101° (E) 03:11:31 436.795 MHz FM
TMSAT-1 31 Jul 03:10:58 03:14:49 20° 93° (E) 03:18:38 436.925 FM
AO-Echo 31 Jul 03:26:20 03:31:24 80° 285° (WNW) 03:36:15 ?
Oscar 19 31 Jul 03:26:59 03:31:46 39° 290° (WNW) 03:36:33 437.125 CW, 437.150 USB
Gurwin Techsat 1B 31 Jul 03:35:49 03:40:57 48° 99° (E) 03:46:04 435.225 FM
ISS 31 Jul 03:46:25 03:48:23 15° 16° (NNE) 03:50:22 145.800 FM
OPAL 31 Jul 03:50:35 03:55:22 52° 70° (ENE) 04:00:11 ?
Oscar 16 31 Jul 03:56:32 04:00:19 21° 295° (WNW) 04:04:07 437.025 USB, Beacon 2401.1428
JAS-1B 31 Jul 04:04:53 04:14:12 82° 287° (WNW) 04:22:02 435.800 - 435.900 CW/SSB
KITSAT 1 31 Jul 04:10:47 04:11:49 10° 97° (E) 04:12:51 435.175 FM
ITAMSAT 1 31 Jul 04:21:34 04:25:52 27° 293° (WNW) 04:30:10 435.822 SSB
AO-7 31 Jul 04:38:24 04:45:47 34° 97° (E) 04:53:04 29.400 - 29.500 MHz
Uribyol 2 31 Jul 04:41:11 04:44:33 18° 297° (WNW) 04:47:54 436.500 FM
AO-27 31 Jul 04:42:04 04:45:31 18° 297° (WNW) 04:48:57 436.795 MHz FM
TMSAT-1 31 Jul 04:49:54 04:54:58 48° 289° (WNW) 05:00:01 436.925 FM
MaSat-1 31 Jul 04:57:47 04:59:43 12° 44° (NE) 05:01:38 437.345 MHz
PANSAT 31 Jul 05:01:44 05:03:59 15° 174° (S) 05:06:15 not established
Gurwin Techsat 1B 31 Jul 05:16:38 05:20:33 21° 296° (WNW) 05:24:28 435.225 FM
ISS 31 Jul 05:22:22 05:25:41 56° 35° (NE) 05:28:59 145.800 FM
Uosat F 31 Jul 05:25:06 05:30:08 84° 104° (ESE) 05:35:08 435.120 FM
OPAL 31 Jul 05:31:27 05:34:33 17° 266° (W) 05:37:40 ?
JAS-1B 31 Jul 05:57:03 06:03:04 20° 309° (NW) 06:08:38 435.800 - 435.900 CW/SSB
KITSAT 1 31 Jul 05:57:41 06:05:40 66° 115° (ESE) 06:13:40 435.175 FM
STRAND 1 31 Jul 06:17:39 06:22:15 34° 69° (ENE) 06:26:51 ?
Hamsat 31 Jul 06:20:18 06:23:53 25° 95° (E) 06:27:28 145.90 MHz
AO-7 31 Jul 06:30:47 06:38:46 53° 295° (WNW) 06:46:42 29.400 - 29.500 MHz
MaSat-1 31 Jul 06:32:45 06:38:03 71° 64° (ENE) 06:42:59 437.345 MHz
PANSAT 31 Jul 06:41:20 06:43:30 15° 187° (S) 06:45:40 not established
Saudisat 1A 31 Jul 06:51:40 06:55:45 39° 115° (ESE) 06:59:53 436.775 MHz
JAS-2 31 Jul 06:57:18 07:02:51 46° 98° (E) 07:07:55 435.800 - 435.900 CW/SSB, 435.910 FM
ISS 31 Jul 07:00:03 07:02:04 15° 230° (SW) 07:04:06 145.800 FM
Uosat F 31 Jul 07:06:29 07:08:11 12° 300° (WNW) 07:09:54 435.120 FM
KITSAT 1 31 Jul 07:54:37 08:01:38 31° 315° (NW) 08:08:41 435.175 FM
Hamsat 31 Jul 07:56:09 07:59:47 27° 290° (WNW) 08:03:26 145.90 MHz
STRAND 1 31 Jul 07:57:06 08:01:26 27° 264° (W) 08:05:47 ?
MaSat-1 31 Jul 08:12:05 08:14:37 14° 261° (W) 08:17:05 437.345 MHz
SO-67 31 Jul 08:21:03 08:24:32 77° 283° (WNW) 08:27:59 435.3500 MHz FM
AO-7 31 Jul 08:27:29 08:29:38 11° 316° (NW) 08:31:47 29.400 - 29.500 MHz
Saudisat 1A 31 Jul 08:31:53 08:35:27 23° 313° (NW) 08:39:03 436.775 MHz
Sapphire 31 Jul 08:32:57 08:36:52 20° 46° (NE) 08:40:45 437.095 MHz 1200 baud AX-25 AFSK
HO-68 31 Jul 08:36:59 08:40:11 13° 89° (E) 08:43:22 435.675 MHz FM
JAS-2 31 Jul 08:43:09 08:47:33 23° 298° (WNW) 08:51:39 435.800 - 435.900 CW/SSB, 435.910 FM
PCSat 31 Jul 09:05:29 09:10:28 36° 54° (NE) 09:15:26 145.825 MHz
KITSAT 1 31 Jul 09:58:39 10:00:13 11° 343° (NNW) 10:01:46 435.175 FM
Sapphire 31 Jul 10:15:24 10:20:47 67° 245° (WSW) 10:26:08 437.095 MHz 1200 baud AX-25 AFSK
UKube-1 31 Jul 10:21:16 10:25:38 70° 102° (ESE) 10:29:57 145.840 MHz, 145.915 MHz
HO-68 31 Jul 10:21:37 10:28:48 85° 106° (ESE) 10:35:57 435.675 MHz FM
PCSat 31 Jul 10:49:02 10:53:47 31° 251° (WSW) 10:58:30 145.825 MHz
Oscar 11 31 Jul 11:03:44 11:08:05 73° 284° (WNW) 11:12:24 145.825 FM, Beacon 2401.500 USB
FUNcube-1 31 Jul 11:32:08 11:36:20 84° 103° (ESE) 11:40:35 145.950 - 145.970 MHz USB
RS-15 31 Jul 11:50:09 11:58:33 26° 103° (ESE) 12:06:46 29.354 - 29.394 USB, Beacon 29.352 USB
KITSAT 1 31 Jul 11:59:37 12:00:27 10° 16° (NNE) 12:01:16 435.175 FM
UKube-1 31 Jul 12:00:04 12:01:14 11° 298° (WNW) 12:02:23 145.840 MHz, 145.915 MHz
SO-50 31 Jul 12:05:30 12:09:53 64° 119° (ESE) 12:14:24 436.795 FM
HO-68 31 Jul 12:10:59 12:15:37 19° 304° (NW) 12:20:14 435.675 MHz FM
JAS-1B 31 Jul 12:58:52 13:05:15 21° 52° (NE) 13:11:53 435.800 - 435.900 CW/SSB
AO-Echo 31 Jul 13:01:51 13:04:52 16° 62° (ENE) 13:07:53 ?
Oscar 19 31 Jul 13:04:14 13:08:42 32° 68° (ENE) 13:13:12 437.125 CW, 437.150 USB
Oscar 16 31 Jul 13:32:25 13:37:27 62° 73° (ENE) 13:42:31 437.025 USB, Beacon 2401.1428
SO-50 31 Jul 13:47:58 13:50:54 17° 317° (NW) 13:53:53 436.795 FM
UOSAT-12 31 Jul 13:51:46 13:56:15 55° 117° (ESE) 14:00:50 437.025 FM, 437.400 FM
KITSAT 1 31 Jul 13:52:15 13:59:09 30° 44° (NE) 14:05:59 435.175 FM
RS-15 31 Jul 13:58:28 14:09:39 80° 302° (WNW) 14:20:38 29.354 - 29.394 USB, Beacon 29.352 USB
ITAMSAT 1 31 Jul 13:58:51 14:03:51 49° 71° (ENE) 14:08:52 435.822 SSB
Uribyol 2 31 Jul 14:17:24 14:22:35 78° 75° (ENE) 14:27:47 436.500 FM
AO-27 31 Jul 14:18:32 14:23:45 77° 74° (ENE) 14:28:59 436.795 MHz FM
TMSAT-1 31 Jul 14:30:43 14:35:15 30° 67° (ENE) 14:39:46 436.925 FM
AO-Echo 31 Jul 14:37:43 14:43:00 71° 258° (WSW) 14:48:20 ?
Oscar 19 31 Jul 14:43:37 14:48:00 29° 264° (W) 14:52:26 437.125 CW, 437.150 USB
JAS-1B 31 Jul 14:45:07 14:54:05 80° 73° (ENE) 15:04:01 435.800 - 435.900 CW/SSB
Gurwin Techsat 1B 31 Jul 14:55:58 15:01:14 70° 74° (ENE) 15:06:31 435.225 FM
Uosat F 31 Jul 15:02:09 15:04:20 13° 60° (ENE) 15:06:30 435.120 FM
Oscar 16 31 Jul 15:14:28 15:17:12 15° 269° (W) 15:19:58 437.025 USB, Beacon 2401.1428
Saudisat 1A 31 Jul 15:19:20 15:23:04 26° 48° (NE) 15:26:47 436.775 MHz
UOSAT-12 31 Jul 15:33:21 15:36:45 20° 316° (NW) 15:40:11 437.025 FM, 437.400 FM
AO-7 31 Jul 15:36:15 15:43:59 44° 63° (ENE) 15:51:43 29.400 - 29.500 MHz
ITAMSAT 1 31 Jul 15:39:54 15:43:35 19° 267° (W) 15:47:16 435.822 SSB
KITSAT 1 31 Jul 15:47:11 15:55:13 71° 245° (WSW) 16:03:12 435.175 FM
Uribyol 2 31 Jul 16:00:55 16:02:37 11° 270° (W) 16:04:18 436.500 FM
AO-27 31 Jul 16:01:56 16:03:48 12° 270° (W) 16:05:40 436.795 MHz FM
OPAL 31 Jul 16:02:43 16:05:32 15° 94° (E) 16:08:21 ?
TMSAT-1 31 Jul 16:10:17 16:15:02 34° 263° (W) 16:19:50 436.925 FM
RS-15 31 Jul 16:15:05 16:23:58 27° 329° (NNW) 16:32:52 29.354 - 29.394 USB, Beacon 29.352 USB
Gurwin Techsat 1B 31 Jul 16:39:04 16:41:41 14° 270° (W) 16:44:18 435.225 FM
